Newberry, MI

4:04 PM EDT on September 19, 2017 (GMT -0400)
Luce County

Weather History for KERY - September, 2013

Change the Weather History Date:

Wednesday, September 25, 2013

  Actual Average Record
Temperature  
Mean Temperature 52 °F -  
Max Temperature 68 °F 60 °F 82 °F (1920)
Min Temperature 35 °F 41 °F 18 °F (1936)
Degree Days  
Heating Degree Days 14    
Growing Degree Days 2 (Base 50)    
Moisture  
Dew Point 45 °F    
Average Humidity 85    
Maximum Humidity 100    
Minimum Humidity 55    
Precipitation  
Precipitation 0.00 in - - ()
Sea Level Pressure  
Sea Level Pressure 30.04 in    
Wind  
Wind Speed 1 mph (South)    
Max Wind Speed 8 mph    
Max Gust Speed -    
Visibility 8 miles    
Events Fog    
Averages and records for this station are not official NWS values.
T = Trace of Precipitation, MM = Missing Value Source: NWS Daily Summary

Daily Weather History Graph

Daily Weather History Graph

Search for Another Location

Airport or City:

Trip Planner

Search our weather history database for the weather conditions in past years. The results will help you decide how hot, cold, wet, or windy it might be!

Date:

Astronomy

Sep. 25, 2013 Rise Set
Actual Time 7:32 AM EDT 7:33 PM EDT
Civil Twilight 7:02 AM EDT 8:02 PM EDT
Nautical Twilight 6:27 AM EDT 8:37 PM EDT
Astronomical Twilight 5:51 AM EDT 9:13 PM EDT
Moon 11:21 PM EDT (9/25) 1:55 PM EDT (9/25)
Length of Visible Light 13h 00m
Length of Day
12h 00m
Waning Gibbous, 64% of the Moon is Illuminated
Sep 25
Waning Gibbous
Sep 26
Last Quarter
Oct 4
New
Oct 11
First Quarter
Oct 18
Full

Hourly Weather History & Observations

Time (EDT) Temp. Windchill Dew Point Humidity Pressure Visibility Wind Dir Wind Speed Gust Speed Precip Events Conditions
12:16 AM 45.7 °F - 43.9 °F 93% 30.03 in 10.0 mi Calm Calm - N/A   Clear
12:36 AM 43.7 °F 40.3 °F 42.3 °F 95% 30.03 in 10.0 mi SSE 5.8 mph - N/A   Clear
12:56 AM 44.8 °F - 43.5 °F 95% 30.03 in 10.0 mi Calm Calm - N/A   Clear
1:16 AM 45.3 °F - 44.4 °F 97% 30.04 in 10.0 mi Calm Calm - N/A   Clear
1:37 AM 45.1 °F - 44.6 °F 98% 30.03 in 10.0 mi Calm Calm - N/A   Clear
1:56 AM 45.3 °F - 44.4 °F 97% 30.03 in 10.0 mi Calm Calm - N/A   Clear
2:16 AM 43.7 °F - 43.5 °F 99% 30.03 in 2.5 mi Calm Calm - N/A   Clear
2:36 AM 41.7 °F - 41.5 °F 99% 30.03 in 7.0 mi Calm Calm - N/A   Clear
2:56 AM 42.6 °F - 42.3 °F 99% 30.04 in 2.0 mi Calm Calm - N/A   Clear
3:16 AM 39.4 °F - 39.2 °F 99% 30.04 in - Calm Calm - N/A   Unknown
3:36 AM 39.2 °F - 39.0 °F 99% 30.03 in 1.0 mi Calm Calm - N/A   Mostly Cloudy
3:56 AM 40.1 °F - 40.1 °F 100% 30.03 in 1.2 mi Calm Calm - N/A   Scattered Clouds
4:16 AM 41.0 °F - 41.0 °F 100% 30.03 in 10.0 mi Calm Calm - N/A   Clear
4:36 AM 42.1 °F - 42.1 °F 100% 30.03 in 10.0 mi Calm Calm - N/A   Clear
4:56 AM 41.0 °F - 41.0 °F 100% 30.03 in 7.0 mi Calm Calm - N/A   Clear
5:16 AM 39.4 °F - 39.2 °F 99% 30.03 in 4.0 mi Calm Calm - N/A   Clear
5:36 AM 37.2 °F - 37.2 °F 100% 30.03 in 1.0 mi Calm Calm - N/A   Mist
5:56 AM 36.7 °F - 36.7 °F 100% 30.04 in 1.5 mi Calm Calm - N/A   Mostly Cloudy
6:17 AM 36.0 °F - 36.0 °F 100% 30.04 in 1.0 mi Calm Calm - N/A   Mostly Cloudy
6:36 AM 37.6 °F - 37.6 °F 100% 30.04 in 1.2 mi Calm Calm - N/A   Overcast
6:56 AM 37.8 °F - 37.8 °F 100% 30.05 in 0.5 mi Calm Calm - N/A Fog Fog
7:16 AM 36.3 °F - 36.3 °F 100% 30.05 in 0.5 mi Calm Calm - N/A Fog Fog
7:36 AM 36.1 °F - 36.1 °F 100% 30.05 in 0.2 mi Calm Calm - N/A Fog Fog
7:56 AM 35.8 °F - 35.8 °F 100% 30.06 in 0.2 mi Calm Calm - N/A Fog Fog
8:16 AM 37.4 °F - 37.4 °F 100% 30.06 in 0.2 mi Calm Calm - N/A Fog Fog
8:36 AM 39.6 °F - 39.6 °F 100% 30.06 in 0.2 mi Calm Calm - N/A Fog Fog
8:56 AM 41.4 °F 39.4 °F 41.4 °F 100% 30.06 in 3.0 mi East 3.5 mph - N/A   Scattered Clouds
9:16 AM 42.3 °F 40.5 °F 42.3 °F 100% 30.06 in 0.5 mi East 3.5 mph - N/A Fog Fog
9:36 AM 44.4 °F - 44.4 °F 100% 30.06 in 5.0 mi Calm Calm - N/A   Mostly Cloudy
9:57 AM 46.6 °F - 45.7 °F 97% 30.07 in 10.0 mi Calm Calm - N/A   Scattered Clouds
10:16 AM 48.6 °F - 47.1 °F 95% 30.07 in 10.0 mi Calm Calm - N/A   Clear
10:36 AM 50.0 °F - 47.5 °F 91% 30.07 in 10.0 mi Calm Calm - N/A   Clear
10:56 AM 52.2 °F - 48.9 °F 89% 30.06 in 10.0 mi East 3.5 mph - N/A   Clear
11:16 AM 54.0 °F - 50.0 °F 86% 30.06 in 10.0 mi ENE 3.5 mph - N/A   Clear
11:36 AM 55.9 °F - 50.7 °F 83% 30.06 in 10.0 mi Calm Calm - N/A   Clear
11:56 AM 57.9 °F - 51.1 °F 78% 30.06 in 10.0 mi East 4.6 mph - N/A   Clear
12:16 PM 60.4 °F - 50.9 °F 71% 30.06 in 10.0 mi Calm Calm - N/A   Clear
12:36 PM 61.7 °F - 50.7 °F 67% 30.06 in 10.0 mi SE 4.6 mph - N/A   Clear
12:56 PM 63.0 °F - 50.4 °F 63% 30.05 in 10.0 mi ESE 3.5 mph - N/A   Clear
1:16 PM 63.9 °F - 50.2 °F 61% 30.04 in 10.0 mi Calm Calm - N/A   Clear
1:37 PM 64.6 °F - 50.2 °F 60% 30.04 in 10.0 mi Calm Calm - N/A   Clear
1:56 PM 64.6 °F - 50.7 °F 61% 30.03 in 10.0 mi Calm Calm - N/A   Clear
2:16 PM 65.3 °F - 50.7 °F 59% 30.03 in 10.0 mi Calm Calm - N/A   Clear
2:36 PM 65.8 °F - 50.5 °F 58% 30.02 in 10.0 mi Calm Calm - N/A   Clear
2:56 PM 67.3 °F - 50.7 °F 55% 30.02 in 10.0 mi Calm Calm - N/A   Clear
3:16 PM 67.5 °F - 51.4 °F 56% 30.02 in 10.0 mi SSE 3.5 mph - N/A   Clear
3:36 PM 68.4 °F - 52.0 °F 56% 30.01 in 10.0 mi West 4.6 mph - N/A   Clear
3:56 PM 67.8 °F - 52.2 °F 57% 30.01 in 10.0 mi SW 5.8 mph - N/A   Clear
4:17 PM 68.7 °F - 52.9 °F 57% 30.01 in 10.0 mi SSW 6.9 mph - N/A   Clear
4:36 PM 67.8 °F - 52.2 °F 57% 30.01 in 10.0 mi SSW 6.9 mph - N/A   Clear
4:56 PM 67.3 °F - 51.8 °F 58% 30.02 in 10.0 mi South 6.9 mph - N/A   Clear
5:16 PM 66.4 °F - 51.6 °F 59% 30.02 in 10.0 mi SSW 8.1 mph - N/A   Clear
5:36 PM 65.5 °F - 51.1 °F 60% 30.02 in 10.0 mi SSW 6.9 mph - N/A   Clear
5:56 PM 64.6 °F - 50.5 °F 60% 30.03 in 10.0 mi SSW 4.6 mph - N/A   Clear
6:16 PM 63.5 °F - 50.4 °F 62% 30.03 in 10.0 mi SSW 6.9 mph - N/A   Clear
6:36 PM 62.8 °F - 50.7 °F 65% 30.03 in 10.0 mi SSW 4.6 mph - N/A   Clear
6:56 PM 61.3 °F - 50.0 °F 66% 30.03 in 10.0 mi South 3.5 mph - N/A   Clear
7:16 PM 59.0 °F - 50.2 °F 73% 30.03 in 10.0 mi SSW 3.5 mph - N/A   Clear
7:36 PM 55.4 °F - 50.0 °F 82% 30.03 in 10.0 mi Calm Calm - N/A   Clear
7:56 PM 52.9 °F - 49.3 °F 88% 30.03 in 10.0 mi SSW 3.5 mph - N/A   Clear
8:16 PM 51.6 °F - 47.5 °F 86% 30.02 in 10.0 mi South 3.5 mph - N/A   Clear
8:37 PM 49.3 °F - 46.8 °F 91% 30.03 in 10.0 mi Calm Calm - N/A   Clear
8:57 PM 48.0 °F - 46.2 °F 93% 30.03 in 10.0 mi Calm Calm - N/A   Clear
9:16 PM 46.4 °F 45.2 °F 44.8 °F 94% 30.03 in 10.0 mi SW 3.5 mph - N/A   Clear
9:36 PM 46.8 °F - 45.3 °F 95% 30.03 in 10.0 mi SW 3.5 mph - N/A   Clear
9:57 PM 46.9 °F - 44.6 °F 92% 30.03 in 10.0 mi Calm Calm - N/A   Clear
10:16 PM 46.2 °F - 45.0 °F 95% 30.03 in 10.0 mi Calm Calm - N/A   Clear
10:36 PM 46.0 °F - 44.8 °F 95% 30.04 in 10.0 mi Calm Calm - N/A   Clear
10:56 PM 44.4 °F - 43.0 °F 95% 30.05 in 10.0 mi Calm Calm - N/A   Clear
11:16 PM 43.7 °F - 42.8 °F 97% 30.04 in 10.0 mi Calm Calm - N/A   Clear
11:36 PM 41.9 °F - 40.8 °F 96% 30.05 in 10.0 mi Calm Calm - N/A   Clear
11:56 PM 43.3 °F - 41.9 °F 95% 30.05 in 10.0 mi Calm Calm - N/A   Clear